period_start,C,m1,H,J0,J1,J2,J3,J4,J5,JA,JB,JC,JD,JJ,JK,JN,#
2016-07-17 00:00:51,0.00,0.18,0.00,19.03,24.87,28.39,14.92,45.30,1026.38,2049.74,3511.65,3102.02,3526.96,599.75,609.61,18.89,0000 0000 0000 0000 000000
2016-07-17 00:05:52,0.00,0.18,0.00,19.02,24.87,28.38,14.92,45.34,1026.38,2049.75,3511.74,3102.04,3526.96,600.09,610.02,18.94,0000 0000 0000 0000 000000
2016-07-17 00:10:54,0.00,0.18,0.00,19.06,24.87,28.43,14.91,45.37,1026.38,2049.70,3511.47,3102.03,3526.92,599.88,609.75,18.99,0000 0000 0000 0000 000000
2016-07-17 00:15:55,0.02,0.18,0.00,19.08,24.88,28.37,14.84,45.26,1026.38,2049.62,3511.07,3101.81,3526.40,599.82,609.60,19.04,0000 0000 0000 0000 000000
2016-07-17 00:20:56,-0.00,0.19,0.00,19.10,24.90,28.34,14.86,45.30,1026.37,2049.49,3510.95,3101.24,3525.97,600.11,609.90,19.09,0000 0000 0000 0000 000000
2016-07-17 00:25:57,-0.01,0.19,0.00,19.14,24.90,28.39,14.95,45.28,1026.36,2049.33,3510.93,3101.07,3525.91,600.24,609.95,19.14,0000 0000 0000 0000 000000
2016-07-17 00:30:59,-0.01,0.18,0.00,19.17,24.91,28.45,14.97,45.39,1026.32,2049.19,3510.93,3101.04,3525.67,600.02,609.72,19.19,0000 0000 0000 0000 000000
2016-07-17 00:36:00,-0.00,0.18,0.00,19.22,24.92,28.41,14.95,45.31,1026.05,2049.06,3510.88,3101.04,3525.47,600.44,609.73,19.24,0000 0000 0000 0000 000000
2016-07-17 00:41:01,0.00,0.18,0.00,19.28,24.92,28.41,14.87,45.32,1026.02,2049.07,3510.61,3100.95,3525.28,599.79,608.99,19.29,0000 0000 0000 0000 000000
2016-07-17 00:46:03,0.05,0.19,0.00,19.24,24.94,28.32,14.95,45.32,1026.09,2049.04,3509.95,3100.13,3524.43,600.41,609.67,19.34,0000 0000 0000 0000 000000
2016-07-17 00:51:04,0.00,0.19,0.00,19.27,24.95,28.33,14.96,45.37,1026.10,2049.02,3509.81,3100.02,3524.11,600.37,609.75,19.39,0000 0000 0000 0000 000000
2016-07-17 00:56:05,0.00,0.19,0.00,19.32,24.97,28.35,14.86,45.24,1025.99,2049.02,3509.82,3100.03,3524.09,599.59,608.77,19.44,0000 0000 0000 0000 000000
2016-07-17 01:01:07,-0.00,0.19,0.00,19.37,24.97,28.25,14.90,45.27,1026.22,2049.02,3509.77,3100.01,3524.04,599.84,608.94,19.49,0000 0000 0000 0000 000000
2016-07-17 01:06:08,0.00,0.19,0.00,19.39,24.98,28.26,14.90,45.28,1026.33,2049.01,3509.59,3100.01,3524.02,600.19,609.31,19.54,0000 0000 0000 0000 000000
2016-07-17 01:11:09,0.00,0.19,0.00,19.40,25.00,28.31,14.92,45.18,1026.28,2049.00,3509.31,3100.00,3524.00,600.53,609.67,19.59,0000 0000 0000 0000 000000
2016-07-17 01:16:10,0.00,0.19,0.00,19.40,25.02,28.30,14.90,45.21,1026.08,2049.00,3509.07,3100.00,3524.00,599.77,608.88,19.64,0000 0000 0000 0000 000000
2016-07-17 01:21:12,0.00,0.19,0.00,19.40,25.04,28.33,14.95,45.21,1025.93,2049.00,3509.00,3099.98,3524.00,600.32,609.23,19.69,0000 0000 0000 0000 000000
2016-07-17 01:26:13,0.00,0.19,0.00,19.45,25.05,28.36,14.94,45.39,1025.90,2049.00,3509.00,3099.92,3523.96,600.35,609.14,19.74,0000 0000 0000 0000 000000
2016-07-17 01:31:14,0.01,0.19,0.00,19.50,25.07,28.35,14.91,45.27,1025.90,2049.00,3508.99,3099.75,3523.83,599.94,608.46,19.79,0000 0000 0000 0000 000000
2016-07-17 01:36:15,0.03,0.19,0.00,19.50,25.10,28.40,14.91,45.34,1025.90,2049.00,3508.58,3099.11,3523.14,600.42,609.11,19.84,0000 0000 0000 0000 000000
2016-07-17 01:41:17,0.00,0.19,0.00,19.52,25.12,28.42,14.84,45.29,1025.90,2048.99,3508.01,3098.97,3522.95,600.05,608.68,19.89,0000 0000 0000 0000 000000
2016-07-17 01:46:18,0.02,0.19,0.00,19.56,25.14,28.44,14.91,45.37,1025.89,2048.98,3508.00,3098.74,3522.44,600.21,608.70,19.94,0000 0000 0000 0000 000000
2016-07-17 01:51:19,0.01,0.19,0.00,19.57,25.16,28.49,14.89,45.33,1025.89,2048.91,3507.97,3098.14,3522.03,599.90,608.42,19.99,0000 0000 0000 0000 000000
2016-07-17 01:56:20,-0.01,0.19,0.00,19.58,25.18,28.52,14.82,45.38,1025.86,2048.71,3507.84,3098.02,3522.00,599.74,608.13,20.04,0000 0000 0000 0000 000000
2016-07-17 02:01:21,-0.01,0.19,0.00,19.60,25.21,28.53,14.94,45.33,1025.84,2048.52,3507.40,3098.00,3522.00,600.02,608.44,20.09,0000 0000 0000 0000 000000
2016-07-17 02:06:22,-0.02,0.19,0.00,19.65,25.23,28.55,14.90,45.39,1025.83,2048.18,3507.07,3097.99,3521.98,600.00,608.37,20.14,0000 0000 0000 0000 000000
2016-07-17 02:11:24,0.03,0.19,0.00,19.68,25.25,28.55,14.85,45.29,1025.76,2048.08,3506.99,3097.48,3521.41,599.85,608.09,20.19,0000 0000 0000 0000 000000
2016-07-17 02:16:25,0.00,0.19,0.00,19.66,25.28,28.60,14.86,45.23,1025.77,2048.02,3506.90,3097.01,3521.00,599.82,608.06,20.24,0000 0000 0000 0000 000000
2016-07-17 02:21:27,0.00,0.19,0.00,19.68,25.30,28.61,14.87,45.28,1025.82,2048.01,3506.72,3097.00,3520.97,599.93,608.20,20.29,0000 0000 0000 0000 000000
2016-07-17 02:26:28,0.04,0.19,0.00,19.72,25.32,28.64,14.77,45.33,1025.76,2048.01,3506.02,3096.44,3520.15,599.53,607.63,20.34,0000 0000 0000 0000 000000
2016-07-17 02:31:29,0.01,0.19,0.00,19.76,25.35,28.66,14.79,45.22,1025.68,2048.00,3505.31,3096.04,3519.99,599.97,607.98,20.39,0000 0000 0000 0000 000000
2016-07-17 02:36:31,0.00,0.19,0.00,19.77,25.37,28.67,14.88,45.32,1025.48,2047.98,3505.06,3096.01,3519.99,600.03,607.81,20.44,0000 0000 0000 0000 000000
2016-07-17 02:41:32,0.00,0.19,0.00,19.76,25.39,28.67,14.95,45.40,1025.42,2047.95,3505.01,3096.00,3519.91,599.99,607.75,20.49,0000 0000 0000 0000 000000
2016-07-17 02:46:33,-0.01,0.19,0.00,19.81,25.41,28.73,14.90,45.20,1025.42,2047.87,3505.00,3095.98,3519.31,600.27,608.08,20.54,0000 0000 0000 0000 000000
2016-07-17 02:51:35,-0.02,0.19,0.00,19.82,25.43,28.72,14.85,45.25,1025.41,2047.70,3505.00,3095.95,3519.02,599.80,607.59,20.59,0000 0000 0000 0000 000000
2016-07-17 02:56:36,-0.03,0.19,0.00,19.89,25.45,28.79,14.85,45.19,1025.41,2047.31,3504.95,3095.75,3519.00,600.06,607.64,20.64,0000 0000 0000 0000 000000
2016-07-17 03:01:37,0.01,0.19,0.00,19.89,25.47,28.82,14.87,45.22,1025.41,2047.08,3504.58,3095.18,3519.00,599.98,607.42,20.69,0000 0000 0000 0000 000000
2016-07-17 03:06:39,0.00,0.19,0.00,19.92,25.50,28.86,14.81,45.04,1025.41,2047.04,3504.10,3095.03,3518.99,599.92,607.41,20.74,0000 0000 0000 0000 000000
2016-07-17 03:11:40,-0.00,0.19,0.00,19.97,25.51,28.86,14.82,45.16,1025.40,2047.01,3504.02,3095.00,3518.97,599.95,607.49,20.79,0000 0000 0000 0000 000000
2016-07-17 03:16:41,0.01,0.19,0.00,19.99,25.53,28.90,14.87,45.17,1025.35,2047.00,3504.00,3095.00,3518.43,600.27,607.63,20.84,0000 0000 0000 0000 000000
2016-07-17 03:21:43,0.00,0.19,0.00,20.02,25.56,28.88,14.79,45.17,1025.35,2047.00,3503.99,3094.98,3518.06,599.81,607.03,20.89,0000 0000 0000 0000 000000
2016-07-17 03:26:44,0.01,0.19,0.00,20.06,25.58,28.95,14.81,45.11,1025.38,2047.00,3503.86,3094.68,3518.01,600.08,607.28,20.94,0000 0000 0000 0000 000000
2016-07-17 03:31:45,0.01,0.19,0.00,20.07,25.60,28.96,14.85,45.13,1025.39,2047.00,3503.61,3094.31,3518.00,600.01,607.15,20.99,0000 0000 0000 0000 000000
2016-07-17 03:36:46,0.01,0.20,0.00,20.12,25.62,29.01,14.86,45.12,1025.40,2047.00,3503.11,3094.04,3517.95,600.15,607.24,21.04,0000 0000 0000 0000 000000
2016-07-17 03:41:48,0.00,0.20,0.00,20.17,25.65,29.02,14.91,45.21,1025.37,2047.00,3503.01,3094.00,3517.74,600.25,607.22,21.09,0000 0000 0000 0000 000000
2016-07-17 03:46:49,0.00,0.20,0.00,20.17,25.66,29.08,14.80,45.09,1025.33,2046.99,3503.00,3094.00,3517.23,599.96,606.99,21.14,0000 0000 0000 0000 000000
2016-07-17 03:51:50,0.00,0.20,0.00,20.23,25.69,29.10,14.82,45.10,1025.28,2046.98,3502.98,3093.98,3517.03,599.98,606.71,21.20,0000 0000 0000 0000 000000
2016-07-17 03:56:51,-0.00,0.20,0.00,20.31,25.71,29.09,14.81,45.24,1025.25,2046.93,3502.88,3093.92,3517.00,599.93,606.65,21.25,0000 0000 0000 0000 000000
2016-07-17 04:01:53,-0.00,0.20,0.00,20.35,25.73,29.09,14.82,45.23,1025.28,2046.75,3502.49,3093.46,3516.98,599.97,606.51,21.30,0000 0000 0000 0000 000000
2016-07-17 04:06:54,-0.02,0.20,0.00,20.36,25.75,29.11,14.83,45.16,1025.33,2046.33,3502.09,3093.09,3516.92,599.71,606.28,21.35,0000 0000 0000 0000 000000
2016-07-17 04:11:55,0.00,0.19,0.00,20.41,25.78,29.18,14.78,45.06,1025.32,2046.15,3502.01,3093.02,3516.42,599.95,606.35,21.40,0000 0000 0000 0000 000000
2016-07-17 04:16:56,-0.00,0.19,0.00,20.46,25.80,29.13,14.81,45.08,1025.37,2046.07,3502.00,3093.01,3516.16,600.31,606.67,21.45,0000 0000 0000 0000 000000
2016-07-17 04:21:58,0.00,0.19,0.00,20.49,25.82,29.10,14.81,45.10,1025.36,2046.02,3501.99,3092.99,3516.01,600.01,606.19,21.50,0000 0000 0000 0000 000000
2016-07-17 04:26:59,-0.00,0.19,0.00,20.54,25.85,29.12,14.76,45.01,1025.29,2046.00,3501.96,3092.97,3516.00,599.90,606.12,21.55,0000 0000 0000 0000 000000
2016-07-17 04:32:00,0.01,0.20,0.00,20.54,25.87,29.16,14.82,45.12,1025.16,2046.00,3501.38,3092.73,3515.97,599.97,606.09,21.60,0000 0000 0000 0000 000000
2016-07-17 04:37:01,0.02,0.20,0.00,20.50,25.89,29.13,14.78,45.17,1025.06,2045.99,3501.17,3092.29,3515.71,600.04,606.16,21.65,0000 0000 0000 0000 000000
2016-07-17 04:42:03,0.00,0.20,0.00,20.54,25.91,29.13,14.73,45.03,1024.95,2045.98,3501.01,3092.04,3515.15,600.06,606.01,21.70,0000 0000 0000 0000 000000
2016-07-17 04:47:04,0.00,0.20,0.00,20.61,25.94,29.18,14.73,44.97,1024.94,2045.95,3501.00,3092.01,3515.03,599.71,605.52,21.75,0000 0000 0000 0000 000000
2016-07-17 04:52:05,-0.03,0.20,0.00,20.62,25.96,29.19,14.82,45.05,1024.94,2045.76,3501.00,3092.00,3515.00,600.09,605.78,21.80,0000 0000 0000 0000 000000
2016-07-17 04:57:06,-0.01,0.20,0.00,20.61,25.98,29.23,14.79,44.98,1024.93,2045.46,3500.97,3091.99,3515.00,600.41,606.22,21.85,0000 0000 0000 0000 000000
2016-07-17 05:02:07,-0.02,0.19,0.00,20.63,26.00,29.26,14.74,45.03,1024.92,2045.15,3500.83,3091.96,3514.94,599.79,605.59,21.90,0000 0000 0000 0000 000000
2016-07-17 05:07:09,0.01,0.19,0.00,20.63,26.02,29.26,14.77,45.15,1024.92,2045.02,3500.77,3091.73,3514.61,599.86,605.56,21.95,0000 0000 0000 0000 000000
2016-07-17 05:12:10,0.01,0.19,0.00,20.64,26.05,29.24,14.79,45.00,1024.92,2045.01,3500.58,3091.42,3514.34,599.95,605.72,22.00,0000 0000 0000 0000 000000
2016-07-17 05:17:11,0.02,0.20,0.00,20.64,26.07,29.33,14.77,44.94,1024.91,2045.00,3500.05,3091.06,3514.02,600.02,605.74,22.05,0000 0000 0000 0000 000000
2016-07-17 05:22:12,0.00,0.20,0.00,20.66,26.10,29.30,14.74,45.05,1024.91,2045.00,3500.01,3091.00,3514.00,599.65,605.41,22.10,0000 0000 0000 0000 000000
2016-07-17 05:27:14,0.00,0.20,0.00,20.66,26.12,29.44,14.84,45.02,1024.90,2044.99,3500.00,3091.00,3513.99,600.39,606.10,22.15,0000 0000 0000 0000 000000
2016-07-17 05:32:15,-0.00,0.20,0.00,20.67,26.14,29.42,14.83,45.12,1024.89,2044.96,3499.96,3090.97,3513.81,599.91,605.62,22.20,0000 0000 0000 0000 000000
2016-07-17 05:37:16,0.01,0.20,0.00,20.69,26.16,29.42,14.75,44.89,1024.82,2044.95,3499.82,3090.82,3513.33,600.04,605.60,22.25,0000 0000 0000 0000 000000
2016-07-17 05:42:17,-0.02,0.20,0.00,20.70,26.19,29.44,14.80,44.93,1024.65,2044.60,3499.16,3090.39,3513.01,600.05,605.54,22.30,0000 0000 0000 0000 000000
2016-07-17 05:47:19,-0.02,0.19,0.00,20.69,26.21,29.48,14.81,44.95,1024.50,2044.12,3499.00,3090.05,3513.00,599.89,605.20,22.35,0000 0000 0000 0000 000000
2016-07-17 05:52:20,-0.00,0.19,0.00,20.69,26.23,29.49,14.77,45.03,1024.45,2044.03,3499.00,3090.00,3512.98,599.89,605.24,22.40,0000 0000 0000 0000 000000
2016-07-17 05:57:22,0.02,0.19,0.00,20.70,26.26,29.52,14.73,45.02,1024.43,2044.02,3498.76,3089.77,3512.73,599.88,605.19,22.45,0000 0000 0000 0000 000000
2016-07-17 06:02:23,0.03,0.20,0.00,20.74,26.28,29.46,14.82,44.99,1024.44,2044.01,3498.03,3089.03,3512.00,600.00,605.25,22.50,0000 0000 0000 0000 000000
2016-07-17 06:07:24,0.00,0.20,0.00,20.76,26.30,29.58,14.74,44.98,1024.43,2044.00,3498.00,3089.00,3511.85,600.03,605.22,22.55,0000 0000 0000 0000 000000
2016-07-17 06:12:25,0.01,0.20,0.00,20.80,26.32,29.61,14.83,45.00,1024.43,2044.00,3497.99,3089.00,3511.39,600.19,605.32,22.60,0000 0000 0000 0000 000000
2016-07-17 06:17:27,0.00,0.20,0.00,20.79,26.35,29.60,14.79,45.09,1024.41,2044.00,3497.94,3088.96,3511.04,599.84,605.04,22.65,0000 0000 0000 0000 000000
2016-07-17 06:22:28,0.01,0.20,0.00,20.77,26.37,29.72,14.83,45.27,1024.40,2043.99,3497.59,3088.78,3511.00,600.06,605.21,22.70,0000 0000 0000 0000 000000
2016-07-17 06:27:29,0.01,0.20,0.00,20.78,26.39,29.77,14.80,44.99,1024.43,2043.96,3497.20,3088.26,3510.98,599.96,605.14,22.75,0000 0000 0000 0000 000000
2016-07-17 06:32:31,-0.01,0.20,0.00,20.80,26.41,29.80,14.75,44.92,1024.38,2043.89,3497.02,3088.03,3510.93,600.14,605.10,22.80,0000 0000 0000 0000 000000
2016-07-17 06:37:32,-0.00,0.20,0.00,20.81,26.42,29.84,14.78,44.89,1024.36,2043.81,3497.00,3088.00,3510.65,600.03,605.07,22.85,0000 0000 0000 0000 000000
2016-07-17 06:42:33,-0.00,0.20,0.00,21.00,26.45,29.74,14.84,44.92,1024.38,2043.53,3496.83,3087.82,3509.99,600.44,605.04,22.90,0000 0000 0000 0000 000000
2016-07-17 06:47:34,0.02,0.20,0.00,22.09,26.48,29.85,14.70,44.67,1024.38,2043.24,3496.03,3087.02,3509.04,600.39,602.71,22.95,0000 0000 0000 0000 000000
2016-07-17 06:52:36,0.00,0.20,0.00,22.58,26.53,29.87,14.54,44.71,1024.39,2043.04,3495.89,3086.57,3508.92,599.81,601.29,23.00,0000 0000 0000 0000 000000
2016-07-17 06:57:37,0.03,0.20,0.00,22.77,26.59,29.84,14.55,44.70,1024.40,2043.00,3495.13,3086.02,3508.11,600.26,601.33,23.05,0000 0000 0000 0000 000000
2016-07-17 07:02:38,0.05,0.20,0.00,22.99,26.65,29.79,14.49,44.50,1024.40,2042.96,3494.56,3085.45,3507.31,599.52,600.23,23.10,0000 0000 0000 0000 000000
2016-07-17 07:07:39,-0.01,0.20,0.00,22.97,26.72,29.83,14.51,44.64,1024.42,2042.34,3493.31,3084.15,3505.86,599.99,600.78,23.15,0000 0000 0000 0000 000000
2016-07-17 07:12:40,0.02,0.20,0.00,23.07,26.79,29.90,14.55,44.38,1024.43,2042.02,3492.93,3083.47,3505.06,600.15,600.72,23.20,0000 0000 0000 0000 000000
2016-07-17 07:17:41,0.02,0.21,0.00,23.20,26.87,29.96,14.61,44.48,1024.42,2041.97,3492.21,3083.00,3504.65,600.31,600.47,23.25,0000 0000 0000 0000 000000
2016-07-17 07:22:42,-0.01,0.21,0.00,23.28,26.95,30.02,14.61,44.54,1024.42,2041.60,3491.64,3082.49,3503.73,599.71,599.81,23.30,0000 0000 0000 0000 000000
2016-07-17 07:27:43,0.02,0.21,0.00,23.24,27.03,30.10,14.55,44.52,1024.42,2041.04,3490.77,3081.48,3502.87,599.98,600.06,23.35,0000 0000 0000 0000 000000
2016-07-17 07:32:44,0.05,0.21,0.00,23.43,27.11,30.16,14.56,44.46,1024.43,2040.99,3489.94,3080.32,3501.94,599.88,599.65,23.40,0000 0000 0000 0000 000000
2016-07-17 07:37:46,-0.01,0.21,0.00,23.51,27.19,30.22,14.60,44.45,1024.43,2040.75,3489.21,3080.00,3501.11,600.37,599.98,23.45,0000 0000 0000 0000 000000
2016-07-17 07:42:47,-0.01,0.21,0.00,23.58,27.27,30.28,14.52,44.63,1024.43,2040.08,3488.93,3079.36,3500.55,599.90,599.34,23.50,0000 0000 0000 0000 000000
2016-07-17 07:47:48,0.01,0.21,0.00,23.60,27.34,30.35,14.57,44.41,1024.43,2040.00,3488.25,3078.99,3500.01,600.15,599.58,23.55,0000 0000 0000 0000 000000
2016-07-17 07:52:49,0.02,0.21,0.00,23.66,27.42,30.39,14.45,44.37,1024.43,2039.91,3487.95,3078.40,3499.42,599.77,599.00,23.60,0000 0000 0000 0000 000000
2016-07-17 07:57:50,-0.05,0.21,0.00,23.71,27.49,30.46,14.50,44.31,1024.43,2039.21,3487.26,3077.99,3498.99,600.03,599.23,23.65,0000 0000 0000 0000 000000
2016-07-17 08:02:52,0.10,0.21,0.00,23.79,27.55,30.50,14.44,44.24,1024.43,2039.00,3486.22,3076.73,3497.52,599.78,598.78,23.70,0000 0000 0000 0000 000000
2016-07-17 08:07:53,0.11,0.22,0.00,23.84,27.62,30.54,14.50,44.25,1024.43,2038.88,3483.61,3074.33,3494.71,599.82,598.75,23.75,0000 0000 0000 0000 000000
2016-07-17 08:12:55,-0.04,0.22,0.00,23.84,27.68,30.60,14.47,44.38,1024.43,2038.19,3482.63,3073.57,3493.94,599.91,598.73,23.80,0000 0000 0000 0000 000000
2016-07-17 08:17:56,0.01,0.22,0.00,23.87,27.73,30.67,14.45,44.34,1024.43,2038.00,3482.01,3073.00,3493.22,599.75,598.60,23.85,0000 0000 0000 0000 000000
2016-07-17 08:22:57,0.03,0.22,0.00,23.88,27.79,30.71,14.58,44.23,1024.43,2038.00,3481.51,3072.56,3492.86,600.11,599.02,23.90,0000 0000 0000 0000 000000
2016-07-17 08:27:59,0.05,0.22,0.00,23.91,27.84,30.74,14.52,44.23,1024.43,2037.85,3480.32,3071.32,3491.37,600.31,599.07,23.95,0000 0000 0000 0000 000000
2016-07-17 08:33:00,-0.02,0.22,0.00,23.86,27.89,30.78,14.59,44.38,1024.43,2037.32,3479.64,3070.91,3490.42,599.85,598.68,24.00,0000 0000 0000 0000 000000
2016-07-17 08:38:01,0.49,0.23,0.00,23.93,27.94,30.83,14.48,44.35,1024.43,2037.05,3472.87,3064.29,3483.27,600.16,598.91,24.05,0000 0000 0000 0000 000000
2016-07-17 08:43:03,0.40,0.26,0.00,23.97,27.98,30.87,14.52,44.23,1024.41,2037.00,3463.41,3055.99,3473.45,599.80,598.51,24.10,0000 0000 0000 0000 000000
2016-07-17 08:48:04,0.01,0.27,0.00,24.06,28.02,30.88,14.46,44.20,1024.32,2036.98,3462.74,3055.06,3472.87,600.11,598.58,24.15,0000 0000 0000 0000 000000
2016-07-17 08:53:05,-0.00,0.27,0.00,24.05,28.06,30.91,14.49,44.22,1024.18,2036.82,3462.07,3054.99,3472.13,599.80,598.13,24.20,0000 0000 0000 0000 000000
2016-07-17 08:58:07,-0.03,0.26,0.00,24.08,28.11,30.94,14.48,44.30,1024.13,2036.21,3462.00,3054.52,3472.00,599.95,598.17,24.25,0000 0000 0000 0000 000000
2016-07-17 09:03:08,0.00,0.26,0.00,24.09,28.14,30.98,14.48,44.27,1024.06,2036.03,3461.98,3054.08,3471.91,599.78,598.02,24.30,0000 0000 0000 0000 000000
2016-07-17 09:08:09,0.04,0.27,0.00,24.09,28.17,31.00,14.57,44.27,1024.05,2036.00,3461.45,3053.78,3471.12,600.08,598.14,24.35,0000 0000 0000 0000 000000
2016-07-17 09:13:11,0.03,0.27,0.00,24.11,28.20,31.02,14.49,44.17,1024.04,2035.99,3460.52,3053.02,3470.05,599.81,597.96,24.40,0000 0000 0000 0000 000000
2016-07-17 09:18:12,0.00,0.27,0.00,24.11,28.22,31.02,14.54,44.29,1024.31,2035.98,3460.05,3052.99,3469.99,600.20,598.52,24.45,0000 0000 0000 0000 000000
2016-07-17 09:23:13,0.00,0.27,0.00,24.15,28.25,31.04,14.55,44.27,1024.42,2035.88,3460.00,3052.66,3469.80,599.74,597.97,24.50,0000 0000 0000 0000 000000
2016-07-17 09:28:15,-0.01,0.27,0.00,24.21,28.27,31.04,14.44,44.19,1024.38,2035.63,3459.98,3052.22,3469.46,599.80,597.92,24.55,0000 0000 0000 0000 000000
2016-07-17 09:33:16,-0.03,0.27,0.00,24.18,28.30,31.06,14.51,44.17,1024.32,2035.21,3459.80,3052.03,3469.09,600.08,598.24,24.60,0000 0000 0000 0000 000000
2016-07-17 09:38:18,0.01,0.27,0.00,24.20,28.31,31.09,14.42,44.13,1024.24,2035.05,3459.20,3052.00,3469.00,599.93,598.01,24.65,0000 0000 0000 0000 000000
2016-07-17 09:43:19,-0.00,0.27,0.00,24.24,28.33,31.09,14.49,44.16,1024.23,2035.02,3459.05,3051.99,3469.00,600.28,598.33,24.70,0000 0000 0000 0000 000000
2016-07-17 09:48:20,-0.00,0.27,0.00,24.28,28.35,31.09,14.49,44.06,1024.27,2035.01,3459.00,3051.97,3468.92,600.21,598.22,24.76,0000 0000 0000 0000 000000
2016-07-17 09:53:21,0.00,0.27,0.00,24.28,28.36,31.10,14.50,44.13,1024.28,2035.00,3459.00,3051.89,3468.71,600.05,597.98,24.81,0000 0000 0000 0000 000000
2016-07-17 09:58:22,0.02,0.27,0.00,24.28,28.37,31.11,14.56,44.08,1024.24,2035.00,3459.00,3051.59,3468.26,600.33,598.24,24.86,0000 0000 0000 0000 000000
2016-07-17 10:03:23,0.01,0.27,0.00,24.30,28.38,31.10,14.45,44.11,1024.02,2034.99,3458.96,3051.11,3468.03,599.80,597.52,24.91,0000 0000 0000 0000 000000
2016-07-17 10:08:24,0.00,0.27,0.00,24.33,28.40,31.11,14.50,44.16,1023.97,2034.98,3458.84,3051.04,3468.00,600.07,597.70,24.96,0000 0000 0000 0000 000000
2016-07-17 10:13:26,0.00,0.27,0.00,24.34,28.40,31.13,14.50,44.11,1024.06,2034.97,3458.34,3051.00,3468.00,600.05,597.74,25.01,0000 0000 0000 0000 000000
2016-07-17 10:18:27,-0.00,0.27,0.00,24.36,28.42,31.15,14.53,44.01,1024.07,2034.95,3458.24,3051.00,3467.99,600.09,597.76,25.06,0000 0000 0000 0000 000000
2016-07-17 10:23:28,0.00,0.27,0.00,24.39,28.42,31.15,14.47,44.03,1024.12,2034.96,3458.05,3051.00,3467.98,599.95,597.65,25.11,0000 0000 0000 0000 000000
2016-07-17 10:28:29,0.03,0.27,0.00,24.40,28.43,31.17,14.42,43.88,1024.03,2034.91,3457.98,3050.38,3467.30,599.64,597.16,25.16,0000 0000 0000 0000 000000
2016-07-17 10:33:31,0.01,0.27,0.00,24.39,28.45,31.17,14.47,44.08,1023.96,2034.89,3457.89,3050.05,3467.00,599.91,597.47,25.21,0000 0000 0000 0000 000000
2016-07-17 10:38:32,-0.04,0.27,0.00,24.40,28.45,31.17,14.43,43.98,1023.94,2034.49,3457.49,3050.01,3466.99,599.86,597.38,25.26,0000 0000 0000 0000 000000
2016-07-17 10:43:33,-0.01,0.27,0.00,24.42,28.47,31.16,14.48,44.14,1023.94,2034.27,3457.25,3050.00,3466.98,600.27,597.71,25.31,0000 0000 0000 0000 000000
2016-07-17 10:48:35,0.01,0.27,0.00,24.41,28.48,31.17,14.46,44.06,1023.94,2034.25,3457.10,3050.00,3466.94,600.05,597.58,25.36,0000 0000 0000 0000 000000
2016-07-17 10:53:36,-0.01,0.27,0.00,24.41,28.50,31.18,14.50,43.98,1023.94,2034.08,3457.01,3050.00,3466.61,600.15,597.63,25.41,0000 0000 0000 0000 000000
2016-07-17 10:58:37,0.00,0.27,0.00,24.42,28.51,31.19,14.57,44.02,1023.94,2034.03,3457.00,3049.97,3466.17,600.15,597.62,25.46,0000 0000 0000 0000 000000
2016-07-17 11:03:38,0.01,0.27,0.00,24.43,28.52,31.21,14.50,43.97,1023.94,2034.01,3456.99,3049.78,3466.02,600.09,597.56,25.51,0000 0000 0000 0000 000000
2016-07-17 11:08:39,0.00,0.27,0.00,24.45,28.54,31.23,14.43,43.98,1023.94,2034.00,3456.98,3049.48,3466.00,600.10,597.44,25.56,0000 0000 0000 0000 000000
2016-07-17 11:13:41,0.00,0.27,0.00,24.48,28.55,31.26,14.46,43.98,1023.94,2034.00,3456.96,3049.32,3466.00,599.77,597.15,25.61,0000 0000 0000 0000 000000
2016-07-17 11:18:42,0.00,0.27,0.00,24.48,28.57,31.28,14.46,44.06,1023.93,2034.00,3456.96,3049.18,3466.00,599.79,597.15,25.66,0000 0000 0000 0000 000000
2016-07-17 11:23:43,0.00,0.27,0.00,24.50,28.58,31.30,14.51,44.02,1023.93,2034.00,3456.78,3049.06,3465.99,599.88,597.22,25.71,0000 0000 0000 0000 000000
2016-07-17 11:28:45,0.01,0.27,0.00,24.50,28.60,31.31,14.47,43.92,1023.89,2034.00,3456.20,3049.01,3465.94,600.27,597.41,25.76,0000 0000 0000 0000 000000
2016-07-17 11:33:46,0.00,0.27,0.00,24.48,28.60,31.34,14.46,44.00,1023.70,2033.99,3456.09,3049.00,3465.81,599.84,597.04,25.81,0000 0000 0000 0000 000000
2016-07-17 11:38:47,0.00,0.27,0.00,24.49,28.62,31.34,14.57,44.12,1023.53,2033.97,3456.02,3049.00,3465.39,600.16,597.20,25.86,0000 0000 0000 0000 000000
2016-07-17 11:43:48,0.00,0.27,0.00,24.48,28.62,31.34,14.41,44.04,1023.51,2033.97,3456.01,3049.00,3465.33,599.90,597.06,25.91,0000 0000 0000 0000 000000
2016-07-17 11:48:50,-0.00,0.27,0.00,24.41,28.62,31.36,14.49,44.00,1023.50,2033.93,3456.00,3048.99,3465.12,599.97,597.26,25.96,0000 0000 0000 0000 000000
2016-07-17 11:53:51,-0.00,0.27,0.00,24.40,28.62,31.37,14.45,44.05,1023.48,2033.94,3456.00,3048.99,3465.06,599.84,597.11,26.01,0000 0000 0000 0000 000000
2016-07-17 11:58:52,-0.01,0.27,0.00,24.39,28.62,31.38,14.47,43.96,1023.47,2033.84,3456.00,3048.98,3465.01,600.06,597.23,26.06,0000 0000 0000 0000 000000
2016-07-17 12:03:54,-0.02,0.27,0.00,24.34,28.62,31.37,14.51,44.00,1023.47,2033.74,3456.00,3048.97,3465.00,599.87,597.25,26.11,0000 0000 0000 0000 000000
2016-07-17 12:08:55,-0.00,0.27,0.00,24.29,28.62,31.38,14.45,43.95,1023.46,2033.67,3456.00,3048.99,3465.00,600.00,597.46,26.16,0000 0000 0000 0000 000000
2016-07-17 12:13:56,-0.01,0.27,0.00,24.26,28.62,31.37,14.45,44.02,1023.45,2033.62,3456.00,3048.99,3465.01,599.75,597.28,26.21,0000 0000 0000 0000 000000
2016-07-17 12:18:58,-0.02,0.27,0.00,24.24,28.62,31.38,14.46,44.08,1023.45,2033.16,3456.00,3048.98,3465.00,599.82,597.37,26.26,0000 0000 0000 0000 000000
2016-07-17 12:23:59,0.01,0.27,0.00,24.23,28.61,31.37,14.47,44.11,1023.45,2033.18,3456.00,3048.98,3465.00,599.96,597.47,26.31,0000 0000 0000 0000 000000
2016-07-17 12:29:00,-0.01,0.27,0.00,24.20,28.60,31.37,14.52,44.14,1023.43,2033.13,3456.00,3048.98,3465.00,600.15,597.68,26.36,0000 0000 0000 0000 000000
2016-07-17 12:34:02,0.02,0.27,0.00,24.19,28.60,31.37,14.51,44.08,1023.42,2033.22,3456.00,3048.99,3465.00,600.12,597.68,26.41,0000 0000 0000 0000 000000
2016-07-17 12:39:03,-0.01,0.27,0.00,24.16,28.60,31.37,14.46,43.93,1023.45,2033.19,3456.00,3048.99,3465.00,599.96,597.65,26.46,0000 0000 0000 0000 000000
2016-07-17 12:44:05,0.01,0.27,0.00,24.15,28.60,31.35,14.51,43.98,1023.45,2033.31,3455.99,3048.99,3465.00,600.64,598.23,26.51,0000 0000 0000 0000 000000
2016-07-17 12:49:06,0.03,0.27,0.00,24.16,28.58,31.35,14.38,43.91,1023.44,2033.48,3455.97,3048.98,3465.00,599.66,597.34,26.56,0000 0000 0000 0000 000000
2016-07-17 12:54:07,0.01,0.27,0.00,24.14,28.57,31.34,14.51,44.08,1023.45,2033.72,3455.93,3048.99,3465.00,600.08,597.83,26.61,0000 0000 0000 0000 000000